Helicity
166 166 184 210 224 235 251 260 250 223 220 192 166 145 135 131 140 202 236 277 329 350 358 351 360 343 332 318 304 259 262 203 193 214 239 251 266 266 208 179 139 165 127
136 140 163 180 214 243 253 262 264 271 274 269 231 189 173 150 147 140 156 180 203 243 271 313 319 310 261 260 191 210 215 247 215 230 223 212 171 139 128 116 97 84 98
122 138 153 163 160 189 209 204 187 181 189 207 214 204 196 203 194 168 164 194 212 227 250 298 288 262 242 211 219 158 171 199 228 236 210 120 110 101 97 109 115 105 99
91 99 115 132 142 146 150 142 129 106 123 136 158 156 170 179 210 228 225 243 275 308 371 364 291 267 222 237 183 195 174 146 133 125 111 124 131 101 95 91 101 139 114
73 78 80 88 88 114 139 148 129 137 154 169 155 171 163 177 191 232 248 287 300 334 341 296 211 178 172 168 182 126 171 137 134 126 95 86 109 112 117 149 142 133 121
49 70 82 81 92 104 94 106 108 95 118 142 158 202 180 191 240 260 269 278 285 272 224 164 134 176 164 188 155 135 101 64 93 106 119 107 113 155 179 163 166 123 97
64 75 66 56 90 102 96 81 87 99 150 155 200 227 245 236 225 212 231 238 243 131 173 94 118 87 85 65 67 89 94 95 97 121 135 146 149 151 139 92 73 66 75
61 64 51 53 74 57 70 85 118 112 108 104 98 107 106 90 134 147 133 114 71 68 53 40 17 21 69 84 86 91 110 117 123 132 122 87 68 71 69 78 74 71 68
57 57 53 55 53 79 112 116 105 107 83 61 48 45 40 41 51 52 40 20 19 23 24 29 49 73 99 103 108 131 148 149 107 69 29 9 8 24 43 74 80 77 82
54 52 45 55 56 63 50 54 26 21 16 16 8 14 29 29 30 35 27 24 28 46 75 93 120 126 133 145 141 133 129 82 32 28 32 33 35 54 50 101 96 104 112
50 46 48 43 43 34 27 15 8 6 1 1 5 7 21 34 45 62 78 87 96 100 103 119 129 140 132 123 110 79 47 9 14 31 39 44 58 70 95 114 129 139 134
42 45 36 21 15 17 20 2 4 2 7 11 17 24 35 55 66 80 84 90 97 109 125 131 131 117 95 75 46 15 7 16 31 37 43 55 65 73 81 91 95 111 140
26 14 14 24 25 16 16 14 13 9 14 23 25 34 45 50 62 68 81 87 103 107 118 111 85 75 61 34 20 17 18 30 36 45 45 51 57 57 65 77 90 99 113
9 17 28 35 34 29 17 11 18 20 23 24 30 36 49 53 59 67 78 89 94 95 107 89 86 69 51 32 31 33 36 35 38 42 47 44 43 49 59 71 77 85 102
30 35 37 33 39 39 39 35 30 34 37 43 54 55 55 71 92 91 89 90 98 93 85 86 90 91 80 60 53 42 40 39 46 47 48 47 50 53 59 66 71 84 113
46 44 36 34 34 37 46 59 80 66 68 75 72 72 69 77 88 81 69 71 74 87 90 100 107 102 88 74 61 50 43 39 42 48 51 55 60 67 74 81 86 84 110
49 57 46 38 39 48 49 55 56 54 61 64 66 68 63 65 82 69 63 60 70 85 98 114 117 118 95 76 65 53 42 40 40 56 69 69 75 79 69 91 100 95 108
72 66 52 47 50 52 58 53 51 49 46 67 62 59 61 57 65 62 60 53 79 107 108 111 119 112 89 78 70 59 51 48 49 60 71 78 83 90 96 111 115 115 108
85 76 65 59 57 63 65 62 62 55 49 56 63 64 66 59 56 53 61 74 86 97 112 115 113 103 87 77 74 63 56 57 54 70 81 96 108 122 118 129 124 68 50
88 79 76 75 83 76 73 70 63 59 59 61 63 69 85 69 62 72 81 82 88 99 111 118 113 107 88 82 69 64 61 52 53 62 76 93 110 112 119 123 125 111 116
111 98 80 85 84 80 80 75 71 71 70 71 75 84 76 76 76 88 93 98 105 118 131 127 120 105 88 76 69 66 64 65 64 61 88 107 109 115 125 138 135 140 137
116 109 110 96 99 93 80 81 82 78 77 76 80 89 77 86 92 98 104 113 123 132 134 130 122 106 94 81 66 67 59 61 65 75 101 104 113 113 119 134 138 138 151
126 129 126 116 109 90 90 88 90 85 81 86 90 89 92 96 102 113 118 129 138 140 136 130 121 108 93 87 74 63 68 83 75 90 99 102 107 121 123 135 156 157 160
128 130 123 122 120 93 89 96 93 84 89 94 98 99 102 107 111 116 128 141 144 142 142 133 119 98 84 79 76 81 85 79 65 96 101 125 143 129 171 181 182 161 152
192 159 139 138 116 89 93 99 103 101 101 100 106 107 110 112 112 117 130 140 145 145 140 130 114 89 70 68 69 69 61 -16 -30 31 123 133 134 139 149 152 153 147 98
190 174 178 136 100 98 109 112 114 115 112 113 117 116 114 114 112 120 133 138 140 134 123 119 102 76 57 55 57 48 -5 -13 -22 -29 -6 99 101 130 123 125 116 137 11
Wind_Speed
49 48 48 46 45 44 44 46 48 49 52 56 59 61 63 61 59 58 57 56 56 56 53 53 51 48 48 48 51 51 49 54 62 61 53 55 60 61 64 64 61 66 67
48 45 44 44 44 44 43 45 46 47 51 55 56 56 56 57 56 54 53 51 50 50 47 44 43 40 44 43 44 49 46 54 59 66 60 58 59 55 56 60 65 61 64
45 43 43 43 42 41 42 43 41 41 45 48 49 51 51 51 52 50 47 45 43 40 39 38 36 34 37 41 43 47 53 55 56 58 60 54 55 53 57 60 65 66 64
41 40 40 41 41 41 40 40 42 44 43 43 43 42 43 42 40 37 35 33 30 31 33 35 33 32 32 38 43 48 50 51 50 52 55 57 58 58 58 65 67 68 73
38 37 39 39 39 39 39 39 41 44 45 43 42 41 41 40 38 33 29 25 26 26 26 30 31 29 32 36 43 43 44 47 50 52 58 59 62 63 67 65 75 69 71
36 36 38 37 37 36 37 38 40 41 43 42 44 44 40 39 36 34 29 25 26 30 29 30 32 35 36 39 41 44 43 46 49 53 58 63 63 62 61 67 69 75 75
35 35 34 34 35 36 37 38 39 41 44 43 43 43 42 40 38 36 33 31 29 25 30 29 34 35 38 40 40 42 45 47 44 46 55 56 60 58 57 59 58 59 62
33 32 31 31 32 34 35 39 39 40 41 43 46 48 45 44 42 40 36 35 32 28 29 33 34 36 39 42 44 41 39 40 41 43 45 47 46 44 45 49 54 57 57
29 28 28 28 30 33 35 37 38 40 41 41 45 47 46 45 43 42 39 37 35 34 34 34 39 40 38 38 41 42 45 45 43 39 38 38 38 37 39 46 52 55 58
25 24 25 27 30 33 35 39 41 42 43 43 44 45 45 44 44 43 39 36 36 36 35 35 40 42 44 47 46 46 47 45 42 40 38 35 33 35 36 35 40 46 52
22 23 26 28 31 33 35 36 38 39 40 41 42 42 42 42 42 43 44 41 40 39 39 41 41 45 47 46 44 41 39 40 41 39 37 36 37 39 37 35 34 43 49
22 24 26 28 29 31 33 34 36 37 38 38 39 39 40 41 42 43 46 47 46 45 45 43 43 47 44 41 38 36 39 39 36 39 39 39 41 44 43 40 35 36 38
23 23 24 26 28 29 31 32 34 34 35 36 37 38 38 38 39 42 45 47 45 46 45 44 44 43 40 36 32 35 36 34 37 38 38 40 45 45 45 42 40 38 38
21 21 23 24 26 28 30 31 32 33 34 35 36 37 38 37 40 41 44 45 44 46 45 43 42 38 35 34 34 34 35 35 37 35 37 44 47 47 50 51 52 51 48
18 19 21 23 25 27 30 32 32 35 37 34 37 38 39 40 42 43 47 49 49 48 47 41 40 38 37 35 36 35 36 38 37 34 41 45 47 49 52 54 56 57 50
14 17 19 22 24 26 27 31 35 34 36 38 39 40 38 39 40 43 45 46 46 46 44 42 41 39 36 38 39 40 39 38 34 37 45 48 48 48 50 51 54 60 56
12 15 18 20 22 23 24 26 27 31 35 37 39 39 41 40 41 43 45 46 44 45 42 42 40 38 37 39 40 40 38 36 35 39 45 50 49 46 46 48 53 60 62
11 13 16 18 20 22 23 25 26 26 29 34 36 38 40 40 41 44 46 46 43 40 41 40 39 38 38 39 40 39 38 36 36 43 49 50 53 51 50 51 55 58 67
8 11 15 17 19 21 22 25 27 27 30 36 38 37 38 41 41 42 43 43 44 42 40 37 37 37 39 39 39 39 37 36 37 46 48 46 47 49 49 51 56 59 73
7 9 12 15 17 19 21 24 26 27 31 35 39 41 41 42 44 44 42 41 41 40 38 38 38 38 39 40 40 40 39 38 40 49 50 47 47 47 48 50 54 63 68
8 9 10 13 15 17 20 23 25 27 31 36 39 39 39 43 44 43 42 40 40 39 39 39 38 39 40 40 41 41 41 40 47 57 51 50 45 42 42 44 46 46 50
9 10 12 14 15 17 20 22 24 27 31 36 39 38 38 39 40 41 41 41 39 38 37 39 39 39 40 41 42 42 42 45 56 61 53 53 47 41 39 40 40 39 36
13 12 15 18 18 17 19 22 25 27 31 36 38 39 40 40 40 41 42 42 41 40 39 39 41 41 39 41 40 38 41 47 63 60 57 51 41 38 38 39 39 32 37
14 14 16 19 18 16 20 22 25 27 32 34 36 38 40 40 41 42 43 44 44 43 42 41 40 41 41 41 38 36 39 58 66 58 50 43 37 35 35 35 38 43 56
18 17 17 19 19 18 20 23 26 29 31 33 36 39 40 41 42 43 44 46 46 46 44 42 41 40 38 35 31 28 19 67 72 35 35 31 31 33 34 35 38 43 78
20 21 20 20 19 19 20 24 27 28 31 35 37 40 42 42 42 42 44 47 47 46 44 43 40 37 33 30 26 15 59 67 72 73 75 42 36 39 43 39 40 44 63
Wind_Direction
315 317 315 317 318 320 321 321 320 319 317 312 309 306 304 302 300 296 294 292 289 288 289 287 287 289 291 296 297 307 295 296 304 306 313 313 313 312 312 311 311 312 312
316 320 325 326 326 329 334 332 333 330 327 322 317 313 310 306 303 299 296 295 293 291 291 289 289 292 294 297 297 302 310 311 308 305 312 314 314 316 315 315 313 316 316
325 325 324 329 336 344 348 349 352 349 345 340 334 327 324 319 310 304 300 298 296 295 295 292 291 293 296 302 302 302 309 311 314 313 314 317 318 320 319 319 318 317 317
327 330 332 333 341 346 355 0 357 352 354 356 354 351 345 340 333 326 318 311 308 307 306 302 299 302 303 305 308 310 313 314 316 318 316 318 319 321 321 319 319 320 319
332 334 332 339 350 357 4 12 5 358 360 4 3 3 357 355 353 354 349 340 321 316 310 306 307 314 317 316 315 316 319 319 318 319 317 319 320 321 319 323 318 322 322
336 332 339 345 357 6 10 19 23 12 13 13 15 15 10 8 13 7 2 359 337 316 307 304 310 316 320 321 322 320 321 322 323 322 321 320 322 325 327 325 324 324 325
332 340 344 353 3 8 12 17 22 23 20 23 24 23 20 19 23 23 17 350 342 343 318 331 324 328 325 322 328 330 325 326 333 333 327 328 328 330 332 330 331 330 328
337 347 349 0 8 19 21 20 22 27 25 29 35 37 34 31 31 32 27 19 20 13 347 337 339 341 335 332 332 338 345 343 341 338 337 337 339 344 344 340 336 333 333
346 357 360 11 21 28 26 28 31 35 38 39 38 45 46 42 35 37 32 27 18 10 8 354 341 343 353 352 345 342 342 342 346 348 349 348 348 350 348 345 340 339 338
358 8 14 25 33 39 39 43 47 48 48 47 44 45 45 42 38 32 30 30 23 16 15 9 357 349 346 343 342 343 342 347 353 355 358 0 359 356 355 355 350 345 343
22 27 34 41 44 45 47 45 45 44 48 47 43 42 37 34 29 22 17 17 13 9 2 355 354 350 348 348 348 349 353 356 356 359 1 2 0 356 359 2 0 349 343
47 49 49 46 44 45 45 47 49 49 46 41 35 30 27 26 21 17 8 3 0 358 355 356 355 351 352 353 356 359 358 1 4 0 359 358 355 351 354 357 357 352 346
62 54 48 45 44 42 40 42 41 43 40 33 30 27 25 24 20 14 8 5 6 2 360 357 355 355 357 1 6 3 5 8 3 1 359 355 351 350 352 356 356 356 350
64 52 45 39 37 31 30 33 37 37 30 28 25 21 20 20 15 12 8 6 6 2 1 359 359 2 4 5 5 7 6 5 2 2 358 351 348 348 348 351 351 353 353
52 43 36 31 27 30 27 20 31 22 13 23 19 15 13 13 11 8 3 1 359 359 358 0 0 1 0 1 1 3 2 0 1 2 353 349 347 346 345 347 348 349 352
44 33 28 29 29 33 35 26 23 25 16 15 15 14 16 14 11 7 5 3 2 1 0 359 357 357 357 355 355 355 358 359 1 357 348 347 346 346 346 348 347 346 349
34 36 32 26 30 34 33 29 31 26 13 11 13 14 11 9 9 6 4 2 2 1 359 357 356 356 354 352 352 352 354 356 356 351 346 344 345 345 346 347 347 345 346
14 30 23 24 31 29 28 22 20 23 16 9 10 11 10 9 7 4 3 1 2 3 359 358 356 355 353 351 350 350 351 352 352 347 343 344 342 342 341 342 342 343 342
31 24 15 20 26 25 22 17 12 15 11 4 4 8 8 6 5 4 4 3 360 359 359 358 355 354 351 349 349 348 348 348 347 342 342 344 344 345 342 339 338 338 335
9 17 19 19 17 15 14 10 7 9 6 1 360 0 3 4 2 2 4 2 1 359 358 356 353 351 349 347 346 346 345 345 343 338 341 343 344 345 344 343 341 337 337
336 350 3 15 14 8 5 3 2 3 0 357 357 1 2 359 359 0 1 1 359 357 355 352 350 348 346 345 344 343 342 342 338 331 339 341 345 346 347 346 344 342 341
314 329 338 346 359 359 357 358 359 357 356 354 356 359 360 360 358 358 358 357 357 356 354 350 346 344 343 342 341 340 340 338 331 329 338 339 344 347 347 346 344 341 335
295 310 321 328 340 350 350 352 350 352 352 352 353 355 356 355 355 355 354 354 353 352 350 348 344 341 341 339 339 339 338 335 324 330 336 341 346 347 347 343 340 326 336
279 295 310 319 332 339 340 343 345 347 347 349 351 352 352 352 351 351 351 350 350 349 348 347 344 340 339 339 339 339 338 325 319 331 337 341 342 341 338 336 338 340 341
272 285 300 311 321 326 332 336 339 342 345 347 348 348 349 349 349 349 348 348 347 347 347 346 345 343 341 341 340 339 293 277 287 276 338 338 336 333 334 335 335 339 332
268 282 295 307 314 320 326 330 334 338 342 343 345 346 346 347 348 348 348 347 347 348 348 348 347 346 344 344 343 328 270 279 286 289 310 341 339 340 342 338 336 337 293